Time,TemperatureF,DewpointF,PressureIn,WindDirection,WindDirectionDegrees,WindSpeedMPH,WindSpeedGustMPH,Humidity,HourlyPrecipIn,Conditions,Clouds,dailyrainin,SoftwareType,DateUTC
2013-01-14 00:09:00,64.1,62.0,30.00,South,175,3.0,7.0,92,0.02,,,0.02,weatherlink.com 1.10,2013-01-14 05:09:00,
2013-01-14 00:26:00,63.9,62.0,30.00,SSW,192,4.0,10.0,92,0.02,,,0.04,weatherlink.com 1.10,2013-01-14 05:26:00,
2013-01-14 00:42:00,63.6,62.0,30.00,SE,146,1.0,8.0,93,0.04,,,0.06,weatherlink.com 1.10,2013-01-14 05:42:00,
2013-01-14 00:59:00,63.4,62.0,30.00,SE,126,4.0,5.0,94,0.07,,,0.09,weatherlink.com 1.10,2013-01-14 05:59:00,
2013-01-14 01:00:00,62.8,61.9,29.99,South,190,4.0,8.0,97,0.04,,---,0.04,VWS V14.01,2013-01-14 06:00:00,
2013-01-14 01:15:00,63.1,61.0,30.00,SSW,192,0.0,7.0,94,0.09,,,0.11,weatherlink.com 1.10,2013-01-14 06:15:00,
2013-01-14 01:32:00,63.0,62.0,30.00,NW,304,1.0,4.0,95,0.08,,,0.12,weatherlink.com 1.10,2013-01-14 06:32:00,
2013-01-14 01:48:00,62.9,62.0,30.01,WNW,285,1.0,6.0,95,0.06,,,0.13,weatherlink.com 1.10,2013-01-14 06:48:00,
2013-01-14 02:05:00,62.7,62.0,30.01,SW,234,0.0,2.0,96,0.11,,,0.20,weatherlink.com 1.10,2013-01-14 07:05:00,
2013-01-14 02:21:00,62.5,61.0,30.01,SSE,164,2.0,5.0,96,0.09,,,0.01,weatherlink.com 1.10,2013-01-14 07:21:00,
2013-01-14 02:37:00,62.4,61.0,30.00,SSE,150,2.0,5.0,96,0.09,,,0.02,weatherlink.com 1.10,2013-01-14 07:37:00,
2013-01-14 02:54:00,62.5,62.0,30.00,SSE,152,3.0,5.0,97,0.08,,,0.03,weatherlink.com 1.10,2013-01-14 07:54:00,
2013-01-14 03:00:00,63.7,62.8,29.99,South,169,1.0,13.0,97,0.00,,---,0.04,VWS V14.01,2013-01-14 08:00:00,
2013-01-14 03:10:00,62.6,62.0,30.00,SSE,168,1.0,4.0,97,0.02,,,0.03,weatherlink.com 1.10,2013-01-14 08:10:00,
2013-01-14 03:26:00,62.7,62.0,30.00,SSE,158,2.0,6.0,97,0.01,,,0.03,weatherlink.com 1.10,2013-01-14 08:26:00,
2013-01-14 03:59:00,62.8,62.0,29.99,SE,138,5.0,9.0,97,0.01,,,0.04,weatherlink.com 1.10,2013-01-14 08:59:00,
2013-01-14 04:15:00,62.8,62.0,29.99,SSE,164,5.0,7.0,97,0.01,,,0.04,weatherlink.com 1.10,2013-01-14 09:15:00,
2013-01-14 04:32:00,62.9,62.0,29.99,SSE,158,4.0,7.0,97,0.01,,,0.04,weatherlink.com 1.10,2013-01-14 09:32:00,
2013-01-14 04:49:00,63.1,62.0,29.98,SE,131,7.0,10.0,97,0.00,,,0.04,weatherlink.com 1.10,2013-01-14 09:49:00,
2013-01-14 05:00:00,64.0,63.1,30.01,South,171,4.0,12.0,97,0.18,,---,0.22,VWS V14.01,2013-01-14 10:00:00,
2013-01-14 05:06:00,63.2,62.0,29.98,SSE,157,6.0,9.0,97,0.00,,,0.04,weatherlink.com 1.10,2013-01-14 10:06:00,
2013-01-14 05:22:00,63.5,63.0,29.98,South,172,5.0,13.0,97,0.00,,,0.04,weatherlink.com 1.10,2013-01-14 10:22:00,
2013-01-14 05:38:00,63.6,63.0,29.98,SW,235,7.0,9.0,97,0.00,,,0.04,weatherlink.com 1.10,2013-01-14 10:38:00,
2013-01-14 05:55:00,63.7,63.0,29.98,SSW,204,0.0,9.0,97,0.00,,,0.04,weatherlink.com 1.10,2013-01-14 10:55:00,
2013-01-14 06:11:00,63.8,63.0,29.99,SSE,159,2.0,7.0,97,0.01,,,0.05,weatherlink.com 1.10,2013-01-14 11:11:00,
2013-01-14 06:27:00,63.8,63.0,30.00,SSW,196,2.0,8.0,97,0.01,,,0.05,weatherlink.com 1.10,2013-01-14 11:27:00,
2013-01-14 06:44:00,63.9,63.0,30.00,WSW,239,5.0,10.0,97,0.01,,,0.05,weatherlink.com 1.10,2013-01-14 11:44:00,
2013-01-14 07:00:00,64.8,63.9,30.04,SSW,213,7.0,13.0,97,0.08,,---,0.30,VWS V14.01,2013-01-14 12:00:00,
2013-01-14 07:01:00,63.9,63.0,30.01,SSW,202,3.0,11.0,97,0.06,,,0.10,weatherlink.com 1.10,2013-01-14 12:01:00,
2013-01-14 07:17:00,63.9,63.0,30.02,SSW,193,2.0,9.0,97,0.09,,,0.14,weatherlink.com 1.10,2013-01-14 12:17:00,
2013-01-14 07:33:00,63.9,63.0,30.01,SSE,161,4.0,10.0,97,0.13,,,0.18,weatherlink.com 1.10,2013-01-14 12:33:00,
2013-01-14 07:50:00,63.9,63.0,30.02,SE,140,6.0,9.0,97,0.13,,,0.20,weatherlink.com 1.10,2013-01-14 12:50:00,
2013-01-14 08:06:00,64.0,63.0,30.02,SE,142,4.0,9.0,97,0.09,,,0.21,weatherlink.com 1.10,2013-01-14 13:06:00,
2013-01-14 08:23:00,64.1,63.0,30.02,SE,134,3.0,10.0,97,0.07,,,0.23,weatherlink.com 1.10,2013-01-14 13:23:00,
2013-01-14 08:40:00,64.1,63.0,30.03,SSE,148,3.0,10.0,97,0.04,,,0.23,weatherlink.com 1.10,2013-01-14 13:40:00,
2013-01-14 08:55:00,64.2,63.0,30.04,SSE,148,3.0,10.0,97,0.04,,,0.25,weatherlink.com 1.10,2013-01-14 13:55:00,
2013-01-14 09:00:00,63.1,61.3,30.02,West,279,1.0,13.0,94,0.11,,---,0.41,VWS V14.01,2013-01-14 14:00:00,
2013-01-14 09:12:00,64.3,64.0,30.04,SSE,150,1.0,8.0,97,0.04,,,0.26,weatherlink.com 1.10,2013-01-14 14:12:00,
2013-01-14 09:28:00,64.4,64.0,30.04,SE,134,2.0,10.0,97,0.05,,,0.28,weatherlink.com 1.10,2013-01-14 14:28:00,
2013-01-14 09:45:00,64.6,64.0,30.04,ESE,121,3.0,9.0,97,0.07,,,0.30,weatherlink.com 1.10,2013-01-14 14:45:00,
2013-01-14 10:01:00,64.7,64.0,30.04,SSW,203,4.0,10.0,97,0.05,,,0.30,weatherlink.com 1.10,2013-01-14 15:01:00,
2013-01-14 10:18:00,65.0,64.0,30.04,South,177,2.0,10.0,96,0.05,,,0.31,weatherlink.com 1.10,2013-01-14 15:18:00,
2013-01-14 10:34:00,65.1,64.0,30.05,SSW,204,2.0,7.0,96,0.02,,,0.31,weatherlink.com 1.10,2013-01-14 15:34:00,
2013-01-14 10:51:00,65.1,64.0,30.04,SSE,167,1.0,9.0,96,0.02,,,0.32,weatherlink.com 1.10,2013-01-14 15:51:00,
2013-01-14 11:00:00,57.9,57.1,30.00,WSW,242,1.0,7.0,97,0.03,,---,0.44,VWS V14.01,2013-01-14 16:00:00,
2013-01-14 11:07:00,65.1,64.0,30.04,South,187,5.0,13.0,96,0.05,,,0.35,weatherlink.com 1.10,2013-01-14 16:07:00,
2013-01-14 11:24:00,65.0,64.0,30.04,SSE,166,5.0,12.0,96,0.06,,,0.37,weatherlink.com 1.10,2013-01-14 16:24:00,
2013-01-14 11:40:00,65.0,64.0,30.03,South,184,2.0,10.0,96,0.07,,,0.38,weatherlink.com 1.10,2013-01-14 16:40:00,
2013-01-14 11:56:00,64.4,63.0,30.02,WNW,295,2.0,9.0,95,0.07,,,0.40,weatherlink.com 1.10,2013-01-14 16:56:00,
2013-01-14 12:13:00,62.5,61.0,30.02,NW,305,2.0,7.0,94,0.05,,,0.41,weatherlink.com 1.10,2013-01-14 17:13:00,
2013-01-14 12:29:00,60.5,59.0,30.01,SSW,198,2.0,7.0,94,0.04,,,0.41,weatherlink.com 1.10,2013-01-14 17:29:00,
2013-01-14 12:46:00,60.0,59.0,30.01,WSW,257,2.0,4.0,96,0.03,,,0.42,weatherlink.com 1.10,2013-01-14 17:46:00,
2013-01-14 13:00:00,58.6,58.0,30.02,WNW,296,2.0,5.0,98,0.00,,---,0.44,VWS V14.01,2013-01-14 18:00:00,
2013-01-14 13:03:00,59.6,59.0,30.01,West,278,0.0,4.0,96,0.01,,,0.42,weatherlink.com 1.10,2013-01-14 18:03:00,
2013-01-14 13:19:00,58.9,58.0,30.00,WSW,252,2.0,7.0,96,0.02,,,0.43,weatherlink.com 1.10,2013-01-14 18:19:00,
2013-01-14 13:36:00,58.4,57.0,30.00,WNW,292,3.0,6.0,96,0.02,,,0.44,weatherlink.com 1.10,2013-01-14 18:36:00,
2013-01-14 13:52:00,58.0,57.0,30.00,SW,225,0.0,4.0,97,0.02,,,0.44,weatherlink.com 1.10,2013-01-14 18:52:00,
2013-01-14 14:08:00,57.9,57.0,30.00,WSW,238,2.0,5.0,97,0.02,,,0.44,weatherlink.com 1.10,2013-01-14 19:08:00,
2013-01-14 14:24:00,57.8,57.0,30.01,West,259,0.0,4.0,97,0.01,,,0.44,weatherlink.com 1.10,2013-01-14 19:24:00,
2013-01-14 14:41:00,57.9,57.0,30.01,WSW,247,2.0,4.0,97,0.00,,,0.44,weatherlink.com 1.10,2013-01-14 19:41:00,
2013-01-14 14:57:00,58.1,57.0,30.01,SW,215,2.0,3.0,97,0.00,,,0.44,weatherlink.com 1.10,2013-01-14 19:57:00,
2013-01-14 15:00:00,58.6,57.8,30.04,NW,311,0.0,4.0,97,0.00,,---,0.44,VWS V14.01,2013-01-14 20:00:00,
2013-01-14 15:14:00,58.1,57.0,30.01,West,268,0.0,4.0,97,0.00,,,0.44,weatherlink.com 1.10,2013-01-14 20:14:00,
2013-01-14 15:30:00,58.1,57.0,30.02,WNW,290,1.0,3.0,97,0.00,,,0.44,weatherlink.com 1.10,2013-01-14 20:30:00,
2013-01-14 15:46:00,58.3,58.0,30.02,NW,309,1.0,3.0,98,0.00,,,0.44,weatherlink.com 1.10,2013-01-14 20:46:00,
2013-01-14 16:02:00,58.6,58.0,30.02,WNW,282,1.0,2.0,98,0.00,,,0.44,weatherlink.com 1.10,2013-01-14 21:02:00,
2013-01-14 16:19:00,58.6,58.0,30.03,WSW,257,2.0,4.0,98,0.00,,,0.44,weatherlink.com 1.10,2013-01-14 21:19:00,
2013-01-14 16:36:00,58.7,58.0,30.03,West,281,1.0,5.0,98,0.00,,,0.44,weatherlink.com 1.10,2013-01-14 21:36:00,
2013-01-14 16:52:00,58.8,58.0,30.04,NW,311,0.0,5.0,98,0.00,,,0.44,weatherlink.com 1.10,2013-01-14 21:52:00,
2013-01-14 17:00:00,56.4,55.6,30.07,NW,309,4.0,11.0,97,0.09,,---,0.53,VWS V14.01,2013-01-14 22:00:00,
2013-01-14 17:09:00,58.8,58.0,30.04,WNW,289,0.0,3.0,97,0.00,,,0.44,weatherlink.com 1.10,2013-01-14 22:09:00,
2013-01-14 17:24:00,58.7,58.0,30.05,NW,304,0.0,4.0,97,0.00,,,0.44,weatherlink.com 1.10,2013-01-14 22:24:00,
2013-01-14 17:42:00,58.6,58.0,30.05,NW,312,0.0,2.0,97,0.00,,,0.44,weatherlink.com 1.10,2013-01-14 22:42:00,
2013-01-14 17:58:00,58.6,58.0,30.05,NW,311,0.0,1.0,97,0.00,,,0.44,weatherlink.com 1.10,2013-01-14 22:58:00,
2013-01-14 18:14:00,58.6,58.0,30.04,NW,311,0.0,0.0,97,0.00,,,0.44,weatherlink.com 1.10,2013-01-14 23:14:00,
2013-01-14 18:31:00,58.5,58.0,30.05,NW,311,0.0,0.0,97,0.00,,,0.44,weatherlink.com 1.10,2013-01-14 23:31:00,
2013-01-14 18:47:00,58.6,58.0,30.04,NW,311,1.0,2.0,98,0.00,,,0.44,weatherlink.com 1.10,2013-01-14 23:47:00,
2013-01-14 19:00:00,54.9,54.1,30.07,West,264,2.0,8.0,97,0.01,,---,0.54,VWS V14.01,2013-01-15 00:00:00,
2013-01-14 19:03:00,58.5,58.0,30.07,SW,234,0.0,7.0,98,0.01,,,0.45,weatherlink.com 1.10,2013-01-15 00:03:00,
2013-01-14 19:20:00,57.6,57.0,30.06,West,261,0.0,8.0,97,0.09,,,0.53,weatherlink.com 1.10,2013-01-15 00:20:00,
2013-01-14 19:36:00,57.3,57.0,30.07,WNW,282,4.0,8.0,97,0.09,,,0.53,weatherlink.com 1.10,2013-01-15 00:36:00,
2013-01-14 19:53:00,56.8,56.0,30.07,NW,305,6.0,10.0,97,0.09,,,0.53,weatherlink.com 1.10,2013-01-15 00:53:00,
2013-01-14 20:09:00,56.3,56.0,30.07,West,261,4.0,6.0,97,0.06,,,0.53,weatherlink.com 1.10,2013-01-15 01:09:00,
2013-01-14 20:26:00,55.7,55.0,30.07,WNW,299,1.0,5.0,97,0.00,,,0.53,weatherlink.com 1.10,2013-01-15 01:26:00,
2013-01-14 20:42:00,55.4,55.0,30.07,WSW,253,1.0,3.0,97,0.00,,,0.53,weatherlink.com 1.10,2013-01-15 01:42:00,
2013-01-14 20:58:00,55.3,55.0,30.06,NNW,327,0.0,3.0,97,0.00,,,0.53,weatherlink.com 1.10,2013-01-15 01:58:00,
2013-01-14 21:00:00,53.8,53.2,30.06,South,190,0.0,5.0,98,0.06,,---,0.60,VWS V14.01,2013-01-15 02:00:00,
2013-01-14 21:15:00,55.2,54.0,30.07,WNW,288,1.0,2.0,97,0.00,,,0.53,weatherlink.com 1.10,2013-01-15 02:15:00,
2013-01-14 21:32:00,55.2,54.0,30.07,WNW,285,1.0,4.0,97,0.00,,,0.53,weatherlink.com 1.10,2013-01-15 02:32:00,
2013-01-14 21:48:00,55.0,54.0,30.06,WSW,238,1.0,3.0,97,0.01,,,0.54,weatherlink.com 1.10,2013-01-15 02:48:00,
2013-01-14 22:04:00,54.9,54.0,30.07,West,275,2.0,3.0,97,0.01,,,0.54,weatherlink.com 1.10,2013-01-15 03:04:00,
2013-01-14 22:20:00,54.8,54.0,30.06,West,265,3.0,4.0,97,0.01,,,0.54,weatherlink.com 1.10,2013-01-15 03:20:00,
2013-01-14 22:38:00,54.5,54.0,30.06,SW,225,2.0,4.0,97,0.01,,,0.55,weatherlink.com 1.10,2013-01-15 03:38:00,
2013-01-14 22:54:00,54.2,53.0,30.06,West,271,2.0,3.0,97,0.01,,,0.55,weatherlink.com 1.10,2013-01-15 03:54:00,
2013-01-14 23:00:00,53.2,52.7,30.06,West,259,0.0,3.0,98,0.01,,---,0.61,VWS V14.01,2013-01-15 04:00:00,
2013-01-14 23:10:00,54.2,53.0,30.06,WSW,255,0.0,2.0,97,0.01,,,0.55,weatherlink.com 1.10,2013-01-15 04:10:00,
2013-01-14 23:27:00,54.1,54.0,30.06,West,260,2.0,4.0,98,0.03,,,0.57,weatherlink.com 1.10,2013-01-15 04:27:00,
2013-01-14 23:43:00,54.0,54.0,30.06,WNW,289,0.0,2.0,98,0.02,,,0.57,weatherlink.com 1.10,2013-01-15 04:43:00,